Regional Weather Roundup
Issued by NWS

Home | Current Version | Previous Version | Graphics & Text | Print | Product List | Glossary On
Versions: 1 2 3 4 5 6 7 8 9 10 11 12 13 14 15 16 17 18 19 20 21 22 23 24 25 26 27 28 29 30 31 32 33 34 35 36 37 38 39 40 41 42 43 44 45 46 47 48 49 50
000
ASUS45 KSLC 301510
RWRUT

UTAH REGIONAL WEATHER ROUNDUP
NATIONAL WEATHER SERVICE SALT LAKE CITY UT
900 AM MDT SAT AUG 30 2014

UTZ001>011-023>025-301600-

NORTHERN UTAH

CITY           SKY/WX    TMP DP  RH WIND       PRES   REMARKS
HILL AFB       NOT AVBL
LOGAN          SUNNY     61  54  77 W3        29.93S
OGDEN          CLOUDY    68  44  42 S12       29.95R
PROVO AIRPORT  PTSUNNY   70  46  43 SE5       30.00R
SALT LAKE CITY CLOUDY    75  42  30 SE9       29.94R
VERNAL         MOSUNNY   62  47  57 CALM      30.10S
WENDOVER       CLOUDY    75  34  22 NW13      29.95R
HEBER CITY     MOSUNNY   59  48  67 CALM      30.07S
WEST JORDAN    SUNNY     73  50  43 S14       29.98R

$$

UTZ012>022-026-027-301600-

SOUTHERN UTAH

CITY           SKY/WX    TMP DP  RH WIND       PRES   REMARKS
BRYCE CANYON   MOSUNNY   58  41  53 CALM      30.28S
CEDAR CITY     PTSUNNY   73  35  25 S3        30.10S
MILFORD        CLOUDY    71  37  28 S15       30.04R
MOAB/CYNLANDS  SUNNY     70  47  43 SE7       30.04S
PRICE          PTSUNNY   65  44  46 CALM      30.13S
ST GEORGE      MOSUNNY   73  39  29 S5        29.96S

$$

REGIONAL REPORTS     COLORADO/ARIZONA

CITY           SKY/WX    TMP DP  RH WIND       PRES   REMARKS
CRAIG, CO      MOSUNNY   59  45  59 E12       30.15F
GRAND JUNCTION MOSUNNY   65  49  56 E12       30.10S
RIFLE          MOSUNNY   58  47  66 CALM      30.18R
MONTROSE       MOSUNNY   62  44  51 SW6       30.20F
CORTEZ         SUNNY     61  45  55 CALM      30.21R
PAGE, AZ       SUNNY     73  39  29 VRB3      30.05S
GRAND CANYON   SUNNY     66  43  43 CALM      30.25R
KINGMAN        SUNNY     82  36  19 SE13      29.98R
FLAGSTAFF      SUNNY     64  45  49 CALM      30.27S

$$

REGIONAL REPORTS    NEVADA/IDAHO/WYOMING

CITY           SKY/WX    TMP DP  RH WIND       PRES   REMARKS
LAS VEGAS, NV  PTSUNNY   85  35  16 W5        29.81R
ELY            CLOUDY    63  36  36 SW7       30.12F
ELKO           MOSUNNY   61  35  37 CALM      30.04S
POCATELLO, ID  SUNNY     64  47  53 W17       29.93R
BURLEY         MOSUNNY   64  46  52 W13       29.94R
EVANSTON, WY   MOSUNNY   63  42  46 SW16      30.12R
ROCK SPRINGS   PTSUNNY   63  40  42 S7        30.08F

$$


USA.gov is the U.S. government's official web portal to all federal, state and local government web resources and services.